Tracking 20093 objects as of 15-Dec-2019
HD Live streaming from Space Station
objects crossing your sky now

FENGYUN 1C DEB

Track FENGYUN 1C DEB now!
10-day predictions


NORAD ID: 37925
Int'l Code: 1999-025EPA
Perigee: 670.6 km
Apogee: 807.3 km
Inclination: 99.1 °
Period: 99.4 minutes
Semi major axis: 7109 km
RCS: 0.0001 m2 (small)
Launch date: May 10, 1999
Source: People's Republic of China (PRC)
Launch site: Taiyaun Space Center, China (TSC)

Note: This is SATELLITE DEBRIS
aabbcc
Your satellite tracking list
Your tracking list is empty




NASA's NSSDC Master Catalog

Two Line Element Set (TLE):
1 37925U 99025EPA 19349.25684373  .00000510  00000-0  14329-3 0  9993
2 37925  99.1379 347.5734 0096142 118.7195 242.3699 14.48110141501829
Source of the keplerian elements: AFSPC